Independence, KS

9:00 AM CDT on May 21, 2018 (GMT -0500)
Independence Municipal

Weather History for KIDP - October, 2011

Change the Weather History Date:

Thursday, October 6, 2011

  Actual Average (KCFV) Record (KCFV)
Temperature  
Mean Temperature 68 °F -  
Max Temperature 82 °F 72 °F 87 °F (1997)
Min Temperature 55 °F 48 °F 36 °F (2001)
Cooling Degree Days 4    
Growing Degree Days 18 (Base 50)    
Moisture  
Dew Point 45 °F    
Average Humidity 44    
Maximum Humidity 67    
Minimum Humidity 23    
Precipitation  
Precipitation 0.00 in - - ()
Sea Level Pressure  
Sea Level Pressure 30.01 in    
Wind  
Wind Speed 11 mph (SSE)    
Max Wind Speed 24 mph    
Max Gust Speed 31 mph    
Visibility 10 miles    
Events      
Averages and records for this station are not official NWS values.
T = Trace of Precipitation, MM = Missing Value Source: NWS Daily Summary

Daily Weather History Graph

Daily Weather History Graph

Search for Another Location

Airport or City:

Astronomy

Oct. 06, 2011 Rise Set
Actual Time 7:22 AM CDT 6:59 PM CDT
Civil Twilight 6:56 AM CDT 7:25 PM CDT
Nautical Twilight 6:26 AM CDT 7:55 PM CDT
Astronomical Twilight 5:56 AM CDT 8:25 PM CDT
Moon 4:07 PM CDT (10/6) 2:18 AM CDT (10/6)
Length of Visible Light 12h 28m
Length of Day
11h 36m
Waxing Gibbous, 75% of the Moon is Illuminated
Oct 6
Waxing Gibbous
Oct 11
Full
Oct 19
Last Quarter
Oct 26
New
Nov 2
First Quarter

Hourly Weather History & Observations

Time (CDT) Temp. Dew Point Humidity Pressure Visibility Wind Dir Wind Speed Gust Speed Precip Events Conditions
12:15 AM 64.4 °F 44.6 °F 49% 30.06 in 10.0 mi SE 6.9 mph - N/A   Clear
12:35 AM 62.6 °F 44.6 °F 52% 30.05 in 10.0 mi SE 6.9 mph - N/A   Clear
1:15 AM 60.8 °F 44.6 °F 55% 30.03 in 10.0 mi SE 10.4 mph - N/A   Clear
1:35 AM 60.8 °F 44.6 °F 55% 30.03 in 10.0 mi SE 10.4 mph - N/A   Clear
1:55 AM 62.6 °F 44.6 °F 52% 30.03 in 10.0 mi SE 10.4 mph - N/A   Clear
2:15 AM 62.6 °F 44.6 °F 52% 30.04 in 10.0 mi SE 10.4 mph - N/A   Clear
2:35 AM 62.6 °F 44.6 °F 52% 30.04 in 10.0 mi SSE 8.1 mph - N/A   Clear
2:55 AM 62.6 °F 44.6 °F 52% 30.03 in 10.0 mi SE 10.4 mph - N/A   Clear
3:15 AM 62.6 °F 44.6 °F 52% 30.02 in 10.0 mi SE 12.7 mph - N/A   Clear
3:35 AM 62.6 °F 44.6 °F 52% 30.03 in 10.0 mi SSE 6.9 mph - N/A   Clear
3:55 AM 60.8 °F 44.6 °F 55% 30.03 in 10.0 mi SSE 8.1 mph - N/A   Clear
4:35 AM 59.0 °F 44.6 °F 59% 30.03 in 10.0 mi SSE 6.9 mph - N/A   Clear
4:55 AM 57.2 °F 44.6 °F 63% 30.03 in 10.0 mi SSE 6.9 mph - N/A   Clear
5:15 AM 55.4 °F 44.6 °F 67% 30.03 in 10.0 mi SE 6.9 mph - N/A   Scattered Clouds
5:35 AM 57.2 °F 44.6 °F 63% 30.03 in 10.0 mi SE 9.2 mph - N/A   Scattered Clouds
5:55 AM 59.0 °F 44.6 °F 59% 30.02 in 10.0 mi SE 9.2 mph - N/A   Clear
6:15 AM 59.0 °F 44.6 °F 59% 30.03 in 10.0 mi SE 9.2 mph - N/A   Clear
6:35 AM 59.0 °F 44.6 °F 59% 30.03 in 10.0 mi SE 9.2 mph - N/A   Clear
6:55 AM 57.2 °F 44.6 °F 63% 30.03 in 10.0 mi SSE 6.9 mph - N/A   Clear
7:15 AM 57.2 °F 44.6 °F 63% 30.03 in 10.0 mi SE 8.1 mph - N/A   Clear
7:35 AM 55.4 °F 44.6 °F 67% 30.04 in 10.0 mi SSE 4.6 mph - N/A   Clear
7:55 AM 55.4 °F 44.6 °F 67% 30.04 in 10.0 mi SSE 3.5 mph - N/A   Clear
8:15 AM 59.0 °F 46.4 °F 63% 30.05 in 10.0 mi SE 5.8 mph - N/A   Clear
8:55 AM 64.4 °F 46.4 °F 52% 30.05 in 10.0 mi SSE 10.4 mph - N/A   Clear
9:15 AM 66.2 °F 46.4 °F 49% 30.06 in 10.0 mi SSE 12.7 mph 16.1 mph N/A   Clear
9:35 AM 68.0 °F 46.4 °F 46% 30.06 in 10.0 mi South 12.7 mph 19.6 mph N/A   Clear
9:55 AM 68.0 °F 46.4 °F 46% 30.07 in 10.0 mi SSE 12.7 mph 16.1 mph N/A   Clear
10:35 AM 71.6 °F 48.2 °F 43% 30.06 in 10.0 mi South 16.1 mph - N/A   Clear
10:55 AM 71.6 °F 46.4 °F 41% 30.06 in 10.0 mi South 12.7 mph 26.5 mph N/A   Clear
11:15 AM 73.4 °F 46.4 °F 38% 30.05 in 10.0 mi SSE 17.3 mph 25.3 mph N/A   Clear
11:35 AM 77.0 °F 48.2 °F 36% 30.05 in 10.0 mi SSE 13.8 mph 20.7 mph N/A   Clear
11:55 AM 75.2 °F 46.4 °F 36% 30.04 in 10.0 mi South 23.0 mph 29.9 mph N/A   Mostly Cloudy
12:15 PM 77.0 °F 46.4 °F 34% 30.04 in 10.0 mi SSE 24.2 mph 27.6 mph N/A   Mostly Cloudy
12:35 PM 77.0 °F 46.4 °F 34% 30.03 in 10.0 mi South 18.4 mph 25.3 mph N/A   Overcast
12:55 PM 78.8 °F 46.4 °F 32% 30.02 in 10.0 mi South 18.4 mph 25.3 mph N/A   Mostly Cloudy
1:15 PM 80.6 °F 41.0 °F 24% 30.01 in 10.0 mi South 19.6 mph 31.1 mph N/A   Clear
1:35 PM 80.6 °F 42.8 °F 26% 30.00 in 10.0 mi South 17.3 mph 27.6 mph N/A   Clear
2:15 PM 82.4 °F 41.0 °F 23% 29.99 in 10.0 mi South 19.6 mph 26.5 mph N/A   Clear
2:35 PM 82.4 °F 41.0 °F 23% 29.99 in 10.0 mi SSE 19.6 mph 26.5 mph N/A   Clear
3:35 PM 80.6 °F 44.6 °F 28% 29.97 in 10.0 mi SSE 18.4 mph 29.9 mph N/A   Clear
3:55 PM 80.6 °F 44.6 °F 28% 29.97 in 10.0 mi South 19.6 mph 31.1 mph N/A   Clear
4:15 PM 80.6 °F 44.6 °F 28% 29.96 in 10.0 mi SSE 21.9 mph 29.9 mph N/A   Clear
4:35 PM 80.6 °F 44.6 °F 28% 29.96 in 10.0 mi SSE 17.3 mph 28.8 mph N/A   Clear
5:15 PM 80.6 °F 44.6 °F 28% 29.95 in 10.0 mi SSE 16.1 mph 25.3 mph N/A   Clear
5:35 PM 80.6 °F 42.8 °F 26% 29.94 in 10.0 mi SSE 16.1 mph 26.5 mph N/A   Clear
5:55 PM 80.6 °F 44.6 °F 28% 29.94 in 10.0 mi SSE 16.1 mph - N/A   Clear
6:15 PM 78.8 °F 44.6 °F 30% 29.94 in 10.0 mi SE 19.6 mph - N/A   Clear
6:35 PM 77.0 °F 44.6 °F 32% 29.94 in 10.0 mi SE 13.8 mph 19.6 mph N/A   Clear
6:55 PM 75.2 °F 44.6 °F 34% 29.94 in 10.0 mi SE 11.5 mph - N/A   Clear
7:15 PM 73.4 °F 46.4 °F 38% 29.95 in 10.0 mi SE 12.7 mph - N/A   Clear
7:35 PM 73.4 °F 46.4 °F 38% 29.95 in 10.0 mi SE 12.7 mph - N/A   Clear
7:55 PM 73.4 °F 44.6 °F 36% 29.95 in 10.0 mi SE 13.8 mph - N/A   Clear
8:15 PM 71.6 °F 44.6 °F 38% 29.96 in 10.0 mi SE 11.5 mph 16.1 mph N/A   Clear
8:35 PM 71.6 °F 46.4 °F 41% 29.96 in 10.0 mi SE 11.5 mph - N/A   Clear
9:15 PM 69.8 °F 46.4 °F 43% 29.97 in 10.0 mi SE 12.7 mph - N/A   Clear
9:35 PM 69.8 °F 46.4 °F 43% 29.98 in 10.0 mi SE 16.1 mph - N/A   Clear
9:55 PM 71.6 °F 46.4 °F 41% 29.98 in 10.0 mi SE 17.3 mph 23.0 mph N/A   Clear
10:15 PM 69.8 °F 46.4 °F 43% 29.98 in 10.0 mi SE 16.1 mph 23.0 mph N/A   Clear
10:35 PM 69.8 °F 46.4 °F 43% 29.98 in 10.0 mi SE 15.0 mph 20.7 mph N/A   Clear
10:55 PM 69.8 °F 46.4 °F 43% 29.98 in 10.0 mi SE 13.8 mph - N/A   Clear
11:15 PM 69.8 °F 46.4 °F 43% 29.98 in 10.0 mi SE 13.8 mph 18.4 mph N/A   Clear
11:35 PM 69.8 °F 46.4 °F 43% 29.98 in 10.0 mi SE 11.5 mph - N/A   Clear
11:55 PM 68.0 °F 48.2 °F 49% 29.98 in 10.0 mi SE 12.7 mph - N/A   Clear